Time,TemperatureF,DewpointF,PressureIn,WindDirection,WindDirectionDegrees,WindSpeedMPH,WindSpeedGustMPH,Humidity,HourlyPrecipIn,Conditions,Clouds,dailyrainin,SoftwareType,DateUTC
2013-03-13 00:02:00,29.0,21.0,30.07,NNW,341,9.0,19.0,73,0.00,,,0.00,,2013-03-13 05:02:00,
2013-03-13 00:12:00,29.0,21.0,30.07,NNW,341,9.0,19.0,73,0.00,,,0.00,,2013-03-13 05:12:00,
2013-03-13 00:22:00,28.0,21.0,30.07,North,360,7.0,12.0,75,0.00,,,0.00,,2013-03-13 05:22:00,
2013-03-13 00:32:00,28.0,21.0,30.07,North,355,6.0,18.0,76,0.00,,,0.00,,2013-03-13 05:32:00,
2013-03-13 00:42:00,28.0,21.0,30.07,North,355,6.0,18.0,76,0.00,,,0.00,,2013-03-13 05:42:00,
2013-03-13 00:52:00,28.0,21.0,30.07,North,355,6.0,18.0,76,0.00,,,0.00,,2013-03-13 05:52:00,
2013-03-13 01:02:00,28.0,22.0,30.08,WNW,286,4.0,9.0,78,0.00,,,0.00,,2013-03-13 06:02:00,
2013-03-13 01:12:00,28.0,22.0,30.08,WNW,286,4.0,9.0,78,0.00,,,0.00,,2013-03-13 06:12:00,
2013-03-13 01:23:00,27.0,21.0,30.07,North,350,4.0,14.0,78,0.00,,,0.00,,2013-03-13 06:23:00,
2013-03-13 01:32:00,27.0,21.0,30.07,North,355,5.0,14.0,78,0.00,,,0.00,,2013-03-13 06:32:00,
2013-03-13 01:42:00,27.0,21.0,30.07,North,355,5.0,14.0,78,0.00,,,0.00,,2013-03-13 06:42:00,
2013-03-13 01:52:00,27.0,22.0,30.08,North,355,5.0,15.0,81,0.00,,,0.00,,2013-03-13 06:52:00,
2013-03-13 02:02:00,27.0,22.0,30.08,NNW,335,4.0,11.0,81,0.00,,,0.00,,2013-03-13 07:02:00,
2013-03-13 02:12:00,27.0,22.0,30.08,NNW,335,4.0,11.0,81,0.00,,,0.00,,2013-03-13 07:12:00,
2013-03-13 02:22:00,27.0,21.0,30.08,NNW,343,6.0,16.0,79,0.00,,,0.00,,2013-03-13 07:22:00,
2013-03-13 02:32:00,27.0,21.0,30.08,NNW,339,5.0,14.0,77,0.00,,,0.00,,2013-03-13 07:32:00,
2013-03-13 02:42:00,27.0,21.0,30.08,NNW,339,5.0,14.0,77,0.00,,,0.00,,2013-03-13 07:42:00,
2013-03-13 02:53:00,27.0,21.0,30.08,NNW,336,5.0,12.0,79,0.00,,,0.00,,2013-03-13 07:53:00,
2013-03-13 03:03:00,27.0,22.0,30.08,WNW,301,4.0,11.0,80,0.00,,,0.00,,2013-03-13 08:03:00,
2013-03-13 03:12:00,27.0,22.0,30.08,WNW,301,4.0,11.0,80,0.00,,,0.00,,2013-03-13 08:12:00,
2013-03-13 03:22:00,27.0,22.0,30.09,North,360,7.0,12.0,81,0.00,,,0.00,,2013-03-13 08:22:00,
2013-03-13 03:32:00,27.0,21.0,30.09,NNW,336,9.0,17.0,79,0.00,,,0.00,,2013-03-13 08:32:00,
2013-03-13 03:43:00,27.0,21.0,30.09,NNW,336,9.0,17.0,79,0.00,,,0.00,,2013-03-13 08:43:00,
2013-03-13 03:54:00,27.0,23.0,30.09,North,355,6.0,15.0,83,0.00,,,0.00,,2013-03-13 08:54:00,
2013-03-13 04:02:00,27.0,22.0,30.09,WNW,284,3.0,15.0,82,0.00,,,0.00,,2013-03-13 09:02:00,
2013-03-13 04:12:00,27.0,22.0,30.09,WNW,284,3.0,15.0,82,0.00,,,0.00,,2013-03-13 09:12:00,
2013-03-13 04:22:00,27.0,23.0,30.09,WNW,292,4.0,10.0,85,0.00,,,0.00,,2013-03-13 09:22:00,
2013-03-13 04:32:00,26.0,22.0,30.09,WNW,286,6.0,14.0,84,0.00,,,0.00,,2013-03-13 09:32:00,
2013-03-13 04:42:00,26.0,22.0,30.09,WNW,286,6.0,14.0,84,0.00,,,0.00,,2013-03-13 09:42:00,
2013-03-13 04:52:00,26.0,22.0,30.10,NW,310,5.0,10.0,85,0.00,,,0.00,,2013-03-13 09:52:00,
2013-03-13 05:02:00,26.0,22.0,30.10,North,5,5.0,15.0,83,0.00,,,0.00,,2013-03-13 10:02:00,
2013-03-13 05:12:00,26.0,22.0,30.10,North,5,5.0,15.0,83,0.00,,,0.00,,2013-03-13 10:12:00,
2013-03-13 05:22:00,26.0,21.0,30.11,NNW,342,4.0,10.0,82,0.00,,,0.00,,2013-03-13 10:22:00,
2013-03-13 05:32:00,26.0,22.0,30.12,North,350,5.0,15.0,83,0.00,,,0.00,,2013-03-13 10:32:00,
2013-03-13 05:42:00,26.0,22.0,30.12,North,350,5.0,15.0,83,0.00,,,0.00,,2013-03-13 10:42:00,
2013-03-13 05:52:00,26.0,22.0,30.12,North,11,5.0,12.0,85,0.00,,,0.00,,2013-03-13 10:52:00,
2013-03-13 06:02:00,26.0,22.0,30.13,NNW,346,5.0,18.0,84,0.00,,,0.00,,2013-03-13 11:02:00,
2013-03-13 06:12:00,26.0,22.0,30.13,NNW,346,5.0,18.0,84,0.00,,,0.00,,2013-03-13 11:12:00,
2013-03-13 06:22:00,26.0,22.0,30.14,NNW,348,5.0,13.0,84,0.00,,,0.00,,2013-03-13 11:22:00,
2013-03-13 06:32:00,27.0,22.0,30.14,North,355,8.0,12.0,82,0.00,,,0.00,,2013-03-13 11:32:00,
2013-03-13 06:42:00,27.0,22.0,30.14,North,355,8.0,12.0,82,0.00,,,0.00,,2013-03-13 11:42:00,
2013-03-13 06:52:00,26.0,21.0,30.14,NW,304,9.0,14.0,81,0.00,,,0.00,,2013-03-13 11:52:00,
2013-03-13 07:02:00,26.0,21.0,30.15,WNW,301,6.0,13.0,82,0.00,,,0.00,,2013-03-13 12:02:00,
2013-03-13 07:12:00,26.0,21.0,30.15,WNW,301,6.0,13.0,82,0.00,,,0.00,,2013-03-13 12:12:00,
2013-03-13 07:22:00,26.0,22.0,30.16,NNW,348,4.0,14.0,84,0.00,,,0.00,,2013-03-13 12:22:00,
2013-03-13 07:32:00,26.0,22.0,30.16,NW,325,5.0,12.0,83,0.00,,,0.00,,2013-03-13 12:32:00,
2013-03-13 07:42:00,26.0,22.0,30.16,NW,325,5.0,12.0,83,0.00,,,0.00,,2013-03-13 12:42:00,
2013-03-13 07:53:00,26.0,22.0,30.17,NNW,343,6.0,13.0,83,0.00,,,0.00,,2013-03-13 12:53:00,
2013-03-13 08:02:00,26.0,21.0,30.18,NNE,32,6.0,13.0,82,0.00,,,0.00,,2013-03-13 13:02:00,
2013-03-13 08:12:00,26.0,21.0,30.18,NNE,32,6.0,13.0,82,0.00,,,0.00,,2013-03-13 13:12:00,
2013-03-13 08:22:00,26.0,20.0,30.18,North,355,8.0,14.0,79,0.00,,,0.00,,2013-03-13 13:22:00,
2013-03-13 08:33:00,26.0,20.0,30.19,NNW,346,6.0,15.0,79,0.00,,,0.00,,2013-03-13 13:33:00,
2013-03-13 08:42:00,26.0,20.0,30.19,NNW,346,6.0,15.0,79,0.00,,,0.00,,2013-03-13 13:42:00,
2013-03-13 08:52:00,27.0,22.0,30.20,NNW,346,6.0,15.0,80,0.00,,,0.00,,2013-03-13 13:52:00,
2013-03-13 09:02:00,27.0,20.0,30.21,WNW,285,5.0,15.0,76,0.00,,,0.00,,2013-03-13 14:02:00,
2013-03-13 09:12:00,27.0,20.0,30.21,WNW,285,5.0,15.0,76,0.00,,,0.00,,2013-03-13 14:12:00,
2013-03-13 09:22:00,27.0,21.0,30.22,NNE,33,6.0,15.0,78,0.00,,,0.00,,2013-03-13 14:22:00,
2013-03-13 09:33:00,27.0,21.0,30.22,NNE,33,6.0,15.0,78,0.00,,,0.00,,2013-03-13 14:33:00,
2013-03-13 09:42:00,27.0,21.0,30.22,NNE,33,6.0,15.0,78,0.00,,,0.00,,2013-03-13 14:42:00,
2013-03-13 09:53:00,27.0,21.0,30.22,NNW,347,7.0,13.0,77,0.00,,,0.00,,2013-03-13 14:53:00,
2013-03-13 10:03:00,28.0,21.0,30.23,North,9,9.0,15.0,76,0.00,,,0.00,,2013-03-13 15:03:00,
2013-03-13 10:12:00,28.0,21.0,30.23,North,9,9.0,15.0,76,0.00,,,0.00,,2013-03-13 15:12:00,
2013-03-13 10:22:00,28.0,22.0,30.24,WNW,284,4.0,11.0,79,0.00,,,0.00,,2013-03-13 15:22:00,
2013-03-13 10:32:00,28.0,23.0,30.24,North,355,4.0,13.0,81,0.00,,,0.00,,2013-03-13 15:32:00,
2013-03-13 10:42:00,28.0,23.0,30.24,North,355,4.0,13.0,81,0.00,,,0.00,,2013-03-13 15:42:00,
2013-03-13 10:52:00,27.0,22.0,30.25,North,355,7.0,16.0,80,0.00,,,0.00,,2013-03-13 15:52:00,
2013-03-13 11:02:00,28.0,22.0,30.25,NW,317,6.0,14.0,78,0.00,,,0.00,,2013-03-13 16:02:00,
2013-03-13 11:12:00,28.0,22.0,30.25,NW,317,6.0,14.0,78,0.00,,,0.00,,2013-03-13 16:12:00,
2013-03-13 11:22:00,29.0,23.0,30.26,NW,307,6.0,18.0,79,0.00,,,0.00,,2013-03-13 16:22:00,
2013-03-13 11:32:00,29.0,22.0,30.26,WNW,297,5.0,15.0,75,0.00,,,0.00,,2013-03-13 16:32:00,
2013-03-13 11:42:00,29.0,22.0,30.26,WNW,297,5.0,15.0,75,0.00,,,0.00,,2013-03-13 16:42:00,
2013-03-13 11:52:00,30.0,21.0,30.27,NNE,32,9.0,16.0,68,0.00,,,0.00,,2013-03-13 16:52:00,
2013-03-13 12:02:00,29.0,20.0,30.27,NNW,333,9.0,18.0,68,0.00,,,0.00,,2013-03-13 17:02:00,
2013-03-13 12:12:00,29.0,20.0,30.27,NNW,333,9.0,18.0,68,0.00,,,0.00,,2013-03-13 17:12:00,
2013-03-13 12:22:00,29.0,20.0,30.28,NNW,347,9.0,16.0,70,0.00,,,0.00,,2013-03-13 17:22:00,
2013-03-13 12:32:00,30.0,20.0,30.28,NNW,331,6.0,17.0,67,0.00,,,0.00,,2013-03-13 17:32:00,
2013-03-13 12:42:00,30.0,20.0,30.28,NNW,331,6.0,17.0,67,0.00,,,0.00,,2013-03-13 17:42:00,
2013-03-13 12:53:00,30.0,20.0,30.29,North,351,7.0,15.0,67,0.00,,,0.00,,2013-03-13 17:53:00,
2013-03-13 13:02:00,30.0,20.0,30.29,North,355,9.0,15.0,67,0.00,,,0.00,,2013-03-13 18:02:00,
2013-03-13 13:12:00,30.0,20.0,30.29,North,355,9.0,15.0,67,0.00,,,0.00,,2013-03-13 18:12:00,
2013-03-13 13:22:00,30.0,20.0,30.29,NNW,336,10.0,18.0,65,0.00,,,0.00,,2013-03-13 18:22:00,
2013-03-13 13:33:00,30.0,20.0,30.29,North,360,8.0,19.0,65,0.00,,,0.00,,2013-03-13 18:33:00,
2013-03-13 13:42:00,30.0,20.0,30.29,North,360,8.0,19.0,65,0.00,,,0.00,,2013-03-13 18:42:00,
2013-03-13 13:52:00,31.0,21.0,30.30,NNW,348,8.0,17.0,65,0.00,,,0.00,,2013-03-13 18:52:00,
2013-03-13 14:02:00,31.0,20.0,30.30,NW,319,8.0,15.0,63,0.00,,,0.00,,2013-03-13 19:02:00,
2013-03-13 14:12:00,31.0,20.0,30.30,NW,319,8.0,15.0,63,0.00,,,0.00,,2013-03-13 19:12:00,
2013-03-13 14:22:00,31.0,20.0,30.30,NNW,331,9.0,17.0,63,0.00,,,0.00,,2013-03-13 19:22:00,
2013-03-13 14:32:00,32.0,21.0,30.30,North,349,8.0,19.0,63,0.00,,,0.00,,2013-03-13 19:32:00,
2013-03-13 14:43:00,32.0,21.0,30.30,North,349,8.0,19.0,63,0.00,,,0.00,,2013-03-13 19:43:00,
2013-03-13 14:53:00,33.0,22.0,30.30,West,267,5.0,16.0,63,0.00,,,0.00,,2013-03-13 19:53:00,
2013-03-13 15:02:00,33.0,20.0,30.30,West,268,8.0,17.0,59,0.00,,,0.00,,2013-03-13 20:02:00,
2013-03-13 15:12:00,33.0,20.0,30.30,West,268,8.0,17.0,59,0.00,,,0.00,,2013-03-13 20:12:00,
2013-03-13 15:22:00,33.0,21.0,30.30,NE,43,5.0,18.0,62,0.00,,,0.00,,2013-03-13 20:22:00,
2013-03-13 15:32:00,34.0,20.0,30.30,North,5,7.0,20.0,56,0.00,,,0.00,,2013-03-13 20:32:00,
2013-03-13 15:42:00,34.0,20.0,30.30,North,5,7.0,20.0,56,0.00,,,0.00,,2013-03-13 20:42:00,
2013-03-13 15:52:00,34.0,21.0,30.31,WNW,298,8.0,18.0,58,0.00,,,0.00,,2013-03-13 20:52:00,
2013-03-13 16:02:00,34.0,20.0,30.31,NNW,330,8.0,17.0,57,0.00,,,0.00,,2013-03-13 21:02:00,
2013-03-13 16:12:00,34.0,20.0,30.31,NNW,330,8.0,17.0,57,0.00,,,0.00,,2013-03-13 21:12:00,
2013-03-13 16:22:00,34.0,20.0,30.32,North,360,5.0,17.0,56,0.00,,,0.00,,2013-03-13 21:22:00,
2013-03-13 16:33:00,34.0,20.0,30.32,NW,324,8.0,18.0,55,0.00,,,0.00,,2013-03-13 21:33:00,
2013-03-13 16:42:00,34.0,20.0,30.32,NW,324,8.0,18.0,55,0.00,,,0.00,,2013-03-13 21:42:00,
2013-03-13 16:52:00,34.0,20.0,30.32,NNW,345,6.0,16.0,57,0.00,,,0.00,,2013-03-13 21:52:00,
2013-03-13 17:02:00,34.0,20.0,30.32,NNW,348,8.0,17.0,55,0.00,,,0.00,,2013-03-13 22:02:00,
2013-03-13 17:12:00,34.0,20.0,30.32,NNW,348,8.0,17.0,55,0.00,,,0.00,,2013-03-13 22:12:00,
2013-03-13 17:22:00,34.0,20.0,30.33,NNW,332,8.0,15.0,55,0.00,,,0.00,,2013-03-13 22:22:00,
2013-03-13 17:32:00,34.0,18.0,30.33,North,360,8.0,14.0,52,0.00,,,0.00,,2013-03-13 22:32:00,
2013-03-13 17:42:00,34.0,18.0,30.33,North,360,8.0,14.0,52,0.00,,,0.00,,2013-03-13 22:42:00,
2013-03-13 17:52:00,34.0,18.0,30.33,North,360,8.0,14.0,52,0.00,,,0.00,,2013-03-13 22:52:00,
2013-03-13 18:02:00,33.0,18.0,30.34,North,11,7.0,15.0,53,0.00,,,0.00,,2013-03-13 23:02:00,
2013-03-13 18:12:00,33.0,18.0,30.34,North,11,7.0,15.0,53,0.00,,,0.00,,2013-03-13 23:12:00,
2013-03-13 18:22:00,32.0,18.0,30.34,NNW,346,7.0,14.0,55,0.00,,,0.00,,2013-03-13 23:22:00,
2013-03-13 18:32:00,32.0,18.0,30.34,NNW,342,4.0,10.0,56,0.00,,,0.00,,2013-03-13 23:32:00,
2013-03-13 18:42:00,32.0,18.0,30.34,NNW,342,4.0,10.0,56,0.00,,,0.00,,2013-03-13 23:42:00,
2013-03-13 18:52:00,31.0,17.0,30.35,North,355,7.0,12.0,55,0.00,,,0.00,,2013-03-13 23:52:00,
2013-03-13 19:02:00,31.0,18.0,30.35,North,10,5.0,11.0,58,0.00,,,0.00,,2013-03-14 00:02:00,
2013-03-13 19:12:00,31.0,18.0,30.35,North,10,5.0,11.0,58,0.00,,,0.00,,2013-03-14 00:12:00,
2013-03-13 19:22:00,30.0,17.0,30.35,NNW,338,4.0,10.0,59,0.00,,,0.00,,2013-03-14 00:22:00,
2013-03-13 19:32:00,30.0,18.0,30.35,North,9,3.0,7.0,60,0.00,,,0.00,,2013-03-14 00:32:00,
2013-03-13 19:42:00,30.0,18.0,30.35,North,9,3.0,7.0,60,0.00,,,0.00,,2013-03-14 00:42:00,
2013-03-13 19:52:00,30.0,18.0,30.35,North,9,3.0,7.0,60,0.00,,,0.00,,2013-03-14 00:52:00,
2013-03-13 20:02:00,29.0,19.0,30.36,NNW,348,2.0,6.0,65,0.00,,,0.00,,2013-03-14 01:02:00,
2013-03-13 20:12:00,29.0,19.0,30.36,NNW,348,2.0,6.0,65,0.00,,,0.00,,2013-03-14 01:12:00,
2013-03-13 20:22:00,29.0,20.0,30.36,North,355,2.0,4.0,68,0.00,,,0.00,,2013-03-14 01:22:00,
2013-03-13 20:32:00,29.0,20.0,30.36,NNW,340,0.0,3.0,70,0.00,,,0.00,,2013-03-14 01:32:00,
2013-03-13 20:42:00,29.0,20.0,30.36,NNW,340,0.0,3.0,70,0.00,,,0.00,,2013-03-14 01:42:00,
2013-03-13 20:53:00,29.0,20.0,30.35,North,355,0.0,3.0,70,0.00,,,0.00,,2013-03-14 01:53:00,
2013-03-13 21:02:00,28.0,20.0,30.35,NNW,345,0.0,4.0,70,0.00,,,0.00,,2013-03-14 02:02:00,
2013-03-13 21:12:00,28.0,20.0,30.35,NNW,345,0.0,4.0,70,0.00,,,0.00,,2013-03-14 02:12:00,
2013-03-13 21:22:00,28.0,20.0,30.35,NNW,348,1.0,4.0,71,0.00,,,0.00,,2013-03-14 02:22:00,
2013-03-13 21:32:00,28.0,20.0,30.36,NNW,348,0.0,2.0,73,0.00,,,0.00,,2013-03-14 02:32:00,
2013-03-13 21:42:00,28.0,20.0,30.36,NNW,348,0.0,2.0,73,0.00,,,0.00,,2013-03-14 02:42:00,
2013-03-13 21:52:00,28.0,20.0,30.36,NNW,348,0.0,2.0,73,0.00,,,0.00,,2013-03-14 02:52:00,
2013-03-13 22:02:00,27.0,20.0,30.37,NNW,348,0.0,1.0,76,0.00,,,0.00,,2013-03-14 03:02:00,
2013-03-13 22:12:00,27.0,20.0,30.37,NNW,348,0.0,1.0,76,0.00,,,0.00,,2013-03-14 03:12:00,
2013-03-13 22:23:00,27.0,21.0,30.37,NNW,348,0.0,2.0,78,0.00,,,0.00,,2013-03-14 03:23:00,
2013-03-13 22:32:00,27.0,21.0,30.37,NNW,348,0.0,0.0,79,0.00,,,0.00,,2013-03-14 03:32:00,
2013-03-13 22:42:00,27.0,21.0,30.37,NNW,348,0.0,0.0,79,0.00,,,0.00,,2013-03-14 03:42:00,
2013-03-13 22:53:00,26.0,21.0,30.37,NNW,348,0.0,0.0,80,0.00,,,0.00,,2013-03-14 03:53:00,
2013-03-13 23:12:00,26.0,21.0,30.36,NNW,348,0.0,0.0,81,0.00,,,0.00,,2013-03-14 04:12:00,
2013-03-13 23:22:00,25.0,20.0,30.36,NNW,348,0.0,0.0,81,0.00,,,0.00,,2013-03-14 04:22:00,
2013-03-13 23:32:00,25.0,21.0,30.36,NNW,348,0.0,0.0,83,0.00,,,0.00,,2013-03-14 04:32:00,
2013-03-13 23:42:00,25.0,21.0,30.36,NNW,348,0.0,0.0,83,0.00,,,0.00,,2013-03-14 04:42:00,
2013-03-13 23:52:00,25.0,21.0,30.36,NNW,348,0.0,0.0,85,0.00,,,0.00,,2013-03-14 04:52:00,